Meacham, OR

3:40 PM PDT on April 24, 2017 (GMT -0700)
Meacham

Weather History for KMEH - April, 2013

Change the Weather History Date:

Monday, April 8, 2013

  Actual Average Record
Temperature  
Mean Temperature 34 °F -  
Max Temperature 37 °F 47 °F 80 °F (2016)
Min Temperature 28 °F 24 °F 14 °F (2011)
Degree Days  
Heating Degree Days 32    
Moisture  
Dew Point 30 °F    
Average Humidity 90    
Maximum Humidity 96    
Minimum Humidity 78    
Precipitation  
Precipitation 0.20 in - - ()
Sea Level Pressure  
Sea Level Pressure 29.97 in    
Wind  
Wind Speed 1 mph (West)    
Max Wind Speed 6 mph    
Max Gust Speed -    
Visibility 4 miles    
Events Fog , Snow    
Averages and records for this station are not official NWS values.
T = Trace of Precipitation, MM = Missing Value Source: NWS Daily Summary

Daily Weather History Graph

Daily Weather History Graph

Search for Another Location

Airport or City:

Trip Planner

Search our weather history database for the weather conditions in past years. The results will help you decide how hot, cold, wet, or windy it might be!

Date:

Astronomy

Apr. 08, 2013 Rise Set
Actual Time 6:20 AM PDT 7:31 PM PDT
Civil Twilight 5:49 AM PDT 8:01 PM PDT
Nautical Twilight 5:13 AM PDT 8:38 PM PDT
Astronomical Twilight 4:34 AM PDT 9:17 PM PDT
Moon 5:17 AM PDT (4/8) 6:08 PM PDT (4/8)
Length of Visible Light 14h 12m
Length of Day
13h 11m
Waning Crescent, 3% of the Moon is Illuminated
Apr 8
Waning Crescent
Apr 10
New
Apr 18
First Quarter
Apr 25
Full
May 2
Last Quarter

Hourly Weather History & Observations

Time (PDT) Temp. Windchill Dew Point Humidity Pressure Visibility Wind Dir Wind Speed Gust Speed Precip Events Conditions
12:56 AM 33.1 °F - 28.9 °F 85% 29.81 in 10.0 mi Calm Calm - N/A   Overcast
1:56 AM 33.1 °F - 27.0 °F 78% 29.82 in 10.0 mi Calm Calm - N/A   Overcast
2:30 AM 32.0 °F 27.5 °F 28.4 °F 87% 29.80 in 1.8 mi Variable 4.6 mph - 0.00 in Snow Light Snow
2:37 AM 32.0 °F - 28.4 °F 87% 29.80 in 1.0 mi Calm Calm - 0.00 in Snow Light Snow
2:56 AM 32.0 °F - 28.9 °F 88% 29.85 in 1.0 mi Calm Calm - 0.02 in Snow Light Snow
3:10 AM 32.0 °F - 30.2 °F 93% 29.81 in 1.2 mi Calm Calm - 0.00 in Snow Light Snow
3:56 AM 32.0 °F - 30.0 °F 92% 29.86 in 1.0 mi Calm Calm - 0.03 in Snow Light Snow
4:30 AM 30.2 °F 26.7 °F 28.4 °F 93% 29.83 in 0.8 mi Variable 3.5 mph - 0.02 in Snow Light Snow
4:56 AM 30.9 °F - 28.9 °F 92% 29.89 in 0.5 mi Calm Calm - 0.08 in Fog , Snow Snow
5:08 AM 30.2 °F 25.4 °F 28.4 °F 93% 29.83 in 2.0 mi Variable 4.6 mph - 0.01 in Snow Light Snow
5:17 AM 30.2 °F - 28.4 °F 93% 29.83 in 3.0 mi Calm Calm - 0.01 in Snow Light Snow
5:21 AM 30.2 °F 26.7 °F 28.4 °F 93% 29.83 in 2.5 mi Variable 3.5 mph - 0.01 in Snow Light Snow
5:27 AM 30.2 °F 26.7 °F 28.4 °F 93% 29.83 in 2.0 mi Variable 3.5 mph - 0.01 in Snow Light Snow
5:35 AM 30.2 °F 25.4 °F 28.4 °F 93% 29.84 in 3.0 mi Variable 4.6 mph - 0.01 in Snow Light Snow
5:41 AM 30.2 °F - 28.4 °F 93% 29.85 in 1.8 mi Calm Calm - 0.01 in Snow Light Snow
5:56 AM 30.9 °F - 28.0 °F 89% 29.91 in 2.0 mi Calm Calm - 0.01 in Snow Light Snow
6:07 AM 30.2 °F 25.4 °F 28.4 °F 93% 29.87 in 1.5 mi Variable 4.6 mph - 0.00 in Snow Light Snow
6:15 AM 30.2 °F - 28.4 °F 93% 29.87 in 1.2 mi Calm Calm - 0.00 in Snow Light Snow
6:24 AM 30.2 °F - 28.4 °F 93% 29.88 in 1.0 mi Calm Calm - 0.01 in Snow Light Snow
6:36 AM 30.2 °F - 28.4 °F 93% 29.88 in 0.8 mi Calm Calm - 0.01 in Snow Light Snow
6:46 AM 30.2 °F - 28.4 °F 93% 29.88 in 1.5 mi Calm Calm - 0.01 in Snow Light Snow
6:56 AM 30.9 °F 26.2 °F 28.9 °F 92% 29.94 in 2.5 mi Variable 4.6 mph - 0.02 in Snow Light Snow
7:04 AM 30.2 °F - 28.4 °F 93% 29.89 in 2.5 mi Calm Calm - N/A   Overcast
7:08 AM 30.2 °F - 28.4 °F 93% 29.89 in 1.8 mi Calm Calm - 0.00 in Snow Light Snow
7:22 AM 30.2 °F - 28.4 °F 93% 29.90 in 0.8 mi Calm Calm - 0.00 in Snow Light Snow
7:56 AM 30.9 °F 27.5 °F 28.9 °F 92% 29.98 in 0.8 mi Variable 3.5 mph - 0.01 in Snow Light Snow
8:11 AM 30.2 °F - 28.4 °F 93% 29.92 in 1.0 mi Calm Calm - 0.00 in Snow Light Snow
8:51 AM 30.2 °F - 28.4 °F 93% 29.93 in 2.5 mi Calm Calm - 0.01 in   Overcast
8:56 AM 30.9 °F 27.5 °F 28.9 °F 92% 29.99 in 1.5 mi West 3.5 mph - 0.01 in Snow Light Snow
9:08 AM 30.2 °F 26.7 °F 28.4 °F 93% 29.93 in 0.8 mi Variable 3.5 mph - 0.00 in Snow Light Snow
9:14 AM 32.0 °F 26.4 °F 28.4 °F 87% 29.94 in 1.2 mi Variable 5.8 mph - 0.00 in Snow Light Snow
9:33 AM 30.2 °F 25.4 °F 28.4 °F 93% 29.94 in 1.2 mi Variable 4.6 mph - 0.00 in Snow Light Snow
9:56 AM 32.0 °F 28.7 °F 30.0 °F 92% 30.01 in 1.2 mi Variable 3.5 mph - 0.01 in Snow Light Snow
10:05 AM 32.0 °F 26.4 °F 30.2 °F 93% 29.95 in 1.2 mi Variable 5.8 mph - 0.00 in Snow Light Snow
10:27 AM 32.0 °F - 30.2 °F 93% 29.95 in 0.8 mi Calm Calm - 0.00 in Snow Light Snow
10:45 AM 33.8 °F - 30.2 °F 87% 29.96 in 1.2 mi Calm Calm - 0.01 in Snow Light Snow
10:56 AM 34.0 °F - 30.9 °F 89% 30.03 in 2.0 mi Calm Calm - 0.01 in Snow Light Snow
11:16 AM 33.8 °F 30.8 °F 30.2 °F 87% 29.97 in 5.0 mi Variable 3.5 mph - 0.00 in Snow Light Snow
11:37 AM 33.8 °F 30.8 °F 30.2 °F 87% 29.97 in 7.0 mi Variable 3.5 mph - 0.00 in   Overcast
11:46 AM 35.6 °F 32.8 °F 32.0 °F 87% 29.97 in 3.0 mi Variable 3.5 mph - 0.00 in Snow Light Snow
11:56 AM 34.0 °F 29.8 °F 30.9 °F 89% 30.04 in 1.2 mi Variable 4.6 mph - 0.00 in Snow Light Snow
12:04 PM 33.8 °F - 30.2 °F 87% 29.98 in 0.5 mi Calm Calm - 0.00 in Fog , Snow Snow
12:11 PM 33.8 °F 29.6 °F 30.2 °F 87% 29.98 in 1.2 mi Variable 4.6 mph - 0.00 in Snow Light Snow
12:17 PM 35.6 °F - 30.2 °F 81% 29.98 in 3.0 mi Calm Calm - 0.00 in Snow Light Snow
12:56 PM 36.0 °F - 33.1 °F 89% 30.04 in 8.0 mi Calm Calm - 0.00 in   Overcast
1:03 PM 37.4 °F 33.8 °F 32.0 °F 81% 29.98 in 10.0 mi Variable 4.6 mph - 0.00 in   Overcast
1:32 PM 35.6 °F - 33.8 °F 93% 29.99 in 4.0 mi Calm Calm - 0.00 in Snow Light Snow
1:56 PM 36.0 °F - 32.0 °F 86% 30.06 in 10.0 mi Calm Calm - 0.00 in   Overcast
2:09 PM 35.6 °F - 33.8 °F 93% 30.00 in 10.0 mi Calm Calm - 0.00 in   Overcast
2:51 PM 35.6 °F - 33.8 °F 93% 30.01 in 10.0 mi Calm Calm - 0.00 in   Overcast
2:56 PM 36.0 °F - 33.1 °F 89% 30.07 in 10.0 mi Calm Calm - 0.00 in   Overcast
3:16 PM 37.4 °F - 33.8 °F 87% 30.01 in 10.0 mi Calm Calm - 0.00 in   Overcast
3:29 PM 37.4 °F - 33.8 °F 87% 30.01 in 10.0 mi Calm Calm - 0.00 in   Overcast
3:56 PM 37.0 °F - 33.1 °F 86% 30.08 in 10.0 mi Calm Calm - 0.00 in   Overcast
4:14 PM 37.4 °F - 33.8 °F 87% 30.02 in 10.0 mi Calm Calm - N/A   Overcast
4:52 PM 37.4 °F - 33.8 °F 87% 30.04 in 10.0 mi Calm Calm - 0.00 in   Overcast
4:56 PM 37.0 °F - 33.1 °F 86% 30.10 in 10.0 mi Calm Calm - 0.00 in   Overcast
5:56 PM 37.9 °F - 34.0 °F 86% 30.11 in 10.0 mi Calm Calm - N/A   Overcast
6:56 PM 35.1 °F - 33.1 °F 92% 30.13 in 10.0 mi Calm Calm - N/A   Scattered Clouds
7:56 PM 33.1 °F - 30.9 °F 92% 30.16 in 10.0 mi Calm Calm - N/A   Mostly Cloudy
8:39 PM 30.2 °F - 28.4 °F 93% 30.11 in 7.0 mi Calm Calm - N/A   Mostly Cloudy
8:56 PM 30.9 °F - 30.0 °F 96% 30.19 in 2.5 mi Calm Calm - N/A   Overcast
9:03 PM 30.2 °F - 28.4 °F 93% 30.12 in 4.0 mi Calm Calm - N/A   Overcast
9:30 PM 30.2 °F - 28.4 °F 93% 30.12 in 1.8 mi Calm Calm - N/A   Scattered Clouds
9:43 PM 30.2 °F - 28.4 °F 93% 30.12 in 3.0 mi Calm Calm - N/A   Scattered Clouds
9:56 PM 30.0 °F - 28.9 °F 96% 30.20 in 7.0 mi Calm Calm - N/A   Partly Cloudy
10:56 PM 30.0 °F - 28.0 °F 92% 30.21 in 7.0 mi Calm Calm - N/A   Clear
11:56 PM 28.9 °F - 26.1 °F 89% 30.23 in 10.0 mi Calm Calm - N/A   Clear